INMARSAT 2-F4

导读

INMARSAT 2-F4是国际海事卫星组织(INMARSAT)发射的第二代海事通信卫星,于1992年4月15日发射升空。作为全球海事通信网络的重要组成部分,它主要为海上船舶、远洋运输提供稳定的通信导航服务,支持语音与数据传输,保障远洋航行安全与航运调度效率,延续了第二代海事卫星系统的可靠服务能力,在早期全球海事通信覆盖中发挥了关键作用。

Basic Information
目录编号:
21940
目录名称:
INMARSAT 2-F4
国际标识:
1992-021B
轨道中心:
EARTH
卫星名称:
INMARSAT 2-F4
卫星全名:
--
卫星状态:
在轨 (已飞行12476 天)
发射日期:
1992-04-15 UTC
国别 :
(Inmarsat)
星等 :
--
Orbit Information
数据来源 国际轨道数据 AOE轨道数据
星历时间 2026-06-12T08:07:01+0800
20小时前
查看轨道信息
2026-06-07T21:00:00+0800
5天前
查看轨道信息
半长轴 42830.156km 42829.777km
偏心率 0.0005989 0.0006013
轨道倾角 12.154° 12.150°
近地点辐角 164.126° 166.636°
升交点赤经 15.718° 15.743°
平近点角 210.367° 74.080°
近地点 36426.368km 36425.886km
远地点 36477.67km 36477.394km
周期 1470.226分钟 1470.207分钟
每日圈数 0.979441 0.979454
Detailed Information
使用方式:
暂无
2D Orbit Map
3D Orbit Map
Orbit Altitude Analysis Chart
Orbit Inclination Analysis Chart
Orbit Comprehensive Analysis Chart
View Comprehensive Chart